Regional Weather Roundup
Issued by NWS

Home | Current Version | Previous Version | Graphics & Text | Print | Product List | Glossary Off
Versions: 1 2 3 4 5 6 7 8 9 10 11 12 13 14 15 16 17 18 19 20 21 22 23 24 25 26 27 28 29 30 31 32 33 34 35 36 37 38 39 40 41 42 43 44 45 46 47 48 49 50

000
ASUS43 KTOP 162259
RWRKS

WEATHER ROUNDUP FOR KANSAS
NATIONAL WEATHER SERVICE GOODLAND KS
600 PM CDT WED APR 16 2014

NOTE:  "FAIR" INDICATES FEW OR NO CLOUDS BELOW 12,000 FEET WITH NO
SIGNIFICANT WEATHER AND/OR OBSTRUCTIONS TO VISIBILITY.

KSZ001>006-013>018-027>032-041>047-170000-
NORTHWEST KANSAS

CITY           SKY/WX    TMP DP  RH WIND       PRES   REMARKS
GOODLAND       CLOUDY    54  28  36 N26G32    29.94R
HAYS           MOSUNNY   64  34  32 N26G35    29.90R
HILL CITY      PTSUNNY   58  32  37 N24G31    29.94R
RUSSELL        MOSUNNY   64  34  32 N23G30    29.87R
$$

KSZ061>065-074>080-084>089-170000-
SOUTHWEST KANSAS

CITY           SKY/WX    TMP DP  RH WIND       PRES   REMARKS
DODGE CITY     PTSUNNY   65  29  25 N14       29.88R
ELKHART          N/A     63  26  24 NE14        N/A
GARDEN CITY    PTSUNNY   63  24  22 N22       29.89R
GREAT BEND     MOSUNNY   70  32  24 NW22      29.85R
LIBERAL        CLOUDY    64  28  25 NE16G25   29.90R
$$

KSZ066>073-081>083-090>101-170000-
SOUTHEAST KANSAS

CITY           SKY/WX    TMP DP  RH WIND       PRES   REMARKS
CHANUTE        SUNNY     64  33  31 S22G28    29.91S
COFFEYVILLE    SUNNY     64  33  31 S14       29.93R
HUTCHINSON     CLOUDY    71  31  22 W7        29.83R
NEWTON         PTSUNNY   70  27  19 SW14      29.87R
PARSONS        SUNNY     65  31  28 S14G23    29.93R
WICHITA INTL   MOSUNNY   72  27  18 SW14G23   29.83R
WICHITA JABRA  MOSUNNY   71  28  20 W15       29.84R
WINFIELD       SUNNY     69  33  26 S21G29    29.87R
$$

KSZ007>012-019>026-033>040-048>060-102>105-170000-
NORTHEAST KANSAS

CITY           SKY/WX    TMP DP  RH WIND       PRES   REMARKS
CONCORDIA      MOSUNNY   61  37  41 NW23G30   29.87R
EMPORIA        MOSUNNY   68  29  23 S21G32    29.83R
LAWRENCE       PTSUNNY   65  33  30 S20G30    29.85R
MANHATTAN      PTSUNNY   70  31  23 SW10      29.79R
OLATHE IND     MOSUNNY   63  33  32 S18G30    29.88S
OLATHE EXE     SUNNY     60  31  33 S23G32    29.88S
SALINA         PTSUNNY   72  36  26 NW16      29.83R
TOPEKA BILLARD PTSUNNY   68  30  24 S13G28    29.82S
TOPEKA FORBES  PTSUNNY   66  31  27 S17G24    29.82R
$$



USA.gov is the U.S. government's official web portal to all federal, state and local government web resources and services.